WEATHER DATA

TODAY
Time Temp. Dewp. Hum. Wind dir Wind speed Wind gust Bar. 1h Prec. 24h Prec.
00:04 20.3 15.1 72 230 0.8 1.4 1015.8 0.0000 0.0000
00:14 20.2 15.2 73 291 1.1 2.2 1016 0.0000 0.0000
00:25 20.1 14.9 72 298 0.8 1.9 1016 0.0000 0.0000
00:34 19.9 14.7 72 237 0.8 1.4 1016.1 0.0000 0.0000
00:44 19.8 14.8 73 280 0.8 1.9 1016.1 0.0000 0.0000
00:54 19.7 14.7 73 311 0.8 1.9 1016 0.0000 0.0000
01:05 19.4 14.7 74 344 1.1 2.2 1016 0.0000 0.0000
01:15 19.2 14.7 75 194 0.8 1.1 1015.8 0.0000 0.0000
01:24 19.2 14.7 75 309 0.8 1.9 1016 0.0000 0.0000
01:35 19.1 14.6 75 270 0.8 1.9 1016.1 0.0000 0.0000
01:45 19.1 14.6 75 340 1.1 2.2 1016.1 0.0000 0.0000
01:55 18.9 14.4 75 288 0.8 1.9 1016 0.0000 0.0000
02:05 18.7 14.2 75 329 0.8 1.9 1016.1 0.0000 0.0000
02:15 18.5 14.2 76 225 0.8 1.4 1016 0.0000 0.0000
02:25 18.4 14.3 77 183 0.8 1.4 1016 0.0000 0.0000
02:40 18.4 14.5 78 182 0.8 1.9 1015.8 0.0000 0.0000
02:49 18.2 14.5 79 203 0.8 1.4 1015.7 0.0000 0.0000
02:59 18.1 14.4 79 180 1.1 1.9 1015.7 0.0000 0.0000
03:09 18 14.3 79 180 1.1 1.9 1015.7 0.0000 0.0000
03:20 18 14.3 79 192 0.8 1.4 1015.7 0.0000 0.0000
03:29 17.9 14.2 79 180 0.8 1.9 1015.7 0.0000 0.0000
03:39 17.9 14.4 80 192 0.8 2.2 1015.7 0.0000 0.0000
03:49 17.8 14.1 79 192 0.8 1.9 1015.6 0.0000 0.0000
04:00 17.9 14.4 80 190 0.8 1.4 1015.5 0.0000 0.0000
04:10 17.9 14.4 80 184 0.8 1.4 1015.3 0.0000 0.0000
04:20 17.9 14.4 80 194 0.8 1.4 1015.2 0.0000 0.0000
04:30 17.9 14.4 80 170 0.8 1.9 1015.3 0.0000 0.0000
04:40 17.9 14.4 80 201 0.8 1.9 1015.1 0.0000 0.0000
04:50 18 14.5 80 225 0.8 1.9 1014.9 0.0000 0.0000
05:01 18 14.5 80 183 0.8 1.4 1015.2 0.0000 0.0000
05:10 18 14.5 80 184 0.8 1.4 1015.1 0.0000 0.0000
05:20 18 14.5 80 180 0.8 1.4 1015 0.0000 0.0000
05:30 18.1 14.6 80 246 0.8 1.9 1014.9 0.0000 0.0000
05:41 18 14.5 80 196 0.8 1.9 1014.8 0.0000 0.0000
05:51 18 14.5 80 172 0.8 1.9 1014.7 0.0000 0.0000
06:00 18 14.5 80 168 0.8 1.9 1014.6 0.0000 0.0000
06:11 18 14.5 80 173 0.8 1.9 1014.7 0.0000 0.0000
06:21 17.9 14.2 79 210 0.8 1.4 1014.7 0.0000 0.0000
06:31 17.9 14.2 79 182 0.8 1.9 1014.7 0.0000 0.0000
06:40 17.8 14.1 79 167 0.8 1.9 1014.6 0.0000 0.0000
06:51 17.8 14.1 79 180 0.8 1.9 1014.7 0.0000 0.0000
07:01 17.8 14.1 79 182 0.8 1.4 1014.6 0.0000 0.0000
07:11 17.8 14.1 79 192 0.8 1.4 1014.5 0.0000 0.0000
07:22 18 14.3 79 190 1.1 1.9 1014.6 0.0000 0.0000
07:31 18.2 14.5 79 190 0.8 1.9 1014.4 0.0000 0.0000
07:41 18.5 14.6 78 173 1.1 1.9 1014.6 0.0000 0.0000
07:51 18.8 14.7 77 180 0.8 1.4 1014.5 0.0000 0.0000
08:02 19.2 14.9 76 174 1.1 2.2 1014.6 0.0000 0.0000
08:12 19.6 15.1 75 169 0.8 2.2 1014.5 0.0000 0.0000
08:21 19.9 15.1 74 135 0.8 1.9 1014.7 0.0000 0.0000
08:32 20.3 15.3 73 143 0.8 1.9 1014.6 0.0000 0.0000
08:42 20.6 15.4 72 146 0.8 2.5 1014.6 0.0000 0.0000
08:52 20.9 15.4 71 135 0.8 1.4 1014.5 0.0000 0.0000
09:01 21.1 15.4 70 71 0.8 2.2 1014.5 0.0000 0.0000
09:12 21.3 15.6 70 135 0.8 2.2 1014.6 0.0000 0.0000
09:22 21.5 15.8 70 165 0.8 1.9 1014.6 0.0000 0.0000
09:32 21.8 15.9 69 144 0.8 1.9 1014.4 0.0000 0.0000
09:42 22 15.8 68 154 1.1 2.5 1014.4 0.0000 0.0000
09:52 22.3 16.1 68 151 0.8 1.9 1014.2 0.0000 0.0000
10:02 22.5 16.1 67 187 0.8 1.9 1014.1 0.0000 0.0000
10:12 22.8 16.4 67 164 0.8 1.9 1014 0.0000 0.0000
10:23 23.2 16.5 66 165 0.8 1.9 1014.1 0.0000 0.0000
10:33 23.5 16.8 66 168 0.8 1.9 1014.2 0.0000 0.0000
10:42 23.8 16.8 65 147 0.8 1.4 1014.2 0.0000 0.0000
10:53 24.1 17.1 65 158 0.3 1.4 1014 0.0000 0.0000
11:03 24.4 17.2 64 143 0.8 1.9 1013.9 0.0000 0.0000
11:13 24.7 17.2 63 167 0.3 1.4 1013.9 0.0000 0.0000
11:23 25 17.2 62 147 0.8 1.4 1013.9 0.0000 0.0000
11:33 25.3 17.2 61 149 0.8 1.4 1013.7 0.0000 0.0000
11:43 25.6 17.3 60 154 0.8 1.4 1013.8 0.0000 0.0000
11:53 26 17.4 59 153 0.8 1.9 1013.7 0.0000 0.0000
12:03 26.2 17.3 58 135 0.8 1.4 1013.6 0.0000 0.0000
12:14 26.5 16.7 55 348 0.8 2.2 1013.5 0.0000 0.0000
12:23 26.9 16.5 53 112 0.8 1.9 1013.5 0.0000 0.0000
12:33 27.3 16.6 52 0 0.8 1.9 1013.5 0.0000 0.0000
12:44 27.4 16.7 52 6 1.1 2.2 1013.4 0.0000 0.0000
12:54 27.7 16.3 50 331 0.8 1.4 1013.4 0.0000 0.0000
13:03 27.9 16.5 50 135 0.8 2.2 1013.1 0.0000 0.0000
13:14 28.3 16.2 48 90 0.3 1.9 1012.9 0.0000 0.0000
13:24 28.6 16.8 49 33 0.8 1.9 1012.8 0.0000 0.0000
13:34 28.8 16.4 47 10 1.1 2.5 1013 0.0000 0.0000
13:44 29.1 16 45 116 1.1 2.8 1013 0.0000 0.0000
13:55 29.4 16.9 47 358 1.1 2.5 1013.1 0.0000 0.0000
14:04 29.6 16.1 44 12 1.1 2.5 1013 0.0000 0.0000
14:13 29.8 16.6 45 10 1.4 2.8 1013.3 0.0000 0.0000
14:24 30 16.8 45 14 1.9 4.4 1013.5 0.0000 0.0000
14:32 30.1 16.9 45 9 1.4 2.8 1013.4 0.0000 0.0000
14:42 30.1 16.9 45 358 1.4 2.8 1013.6 0.0000 0.0000
14:52 30.2 15.9 42 5 1.4 2.8 1013.8 0.0000 0.0000
15:02 30.3 16.3 43 10 1.9 3.9 1013.8 0.0000 0.0000
15:12 30.4 16.4 43 9 1.9 5 1013.7 0.0000 0.0000
15:23 30.6 15.9 41 8 1.4 3.6 1014 0.0000 0.0000
15:32 30.7 15.6 40 355 2.2 4.7 1014 0.0000 0.0000
15:41 30.9 16.5 42 1 1.9 6.4 1014.1 0.0000 0.0000
15:52 30.9 16.5 42 14 2.2 4.7 1013.9 0.0000 0.0000
16:02 30.6 15.9 41 358 1.4 3.6 1013.8 0.0000 0.0000
16:12 30.5 16.5 43 343 1.4 3.3 1013.9 0.0000 0.0000
16:27 30.6 16.2 42 349 1.4 3.6 1014 0.0000 0.0000
16:37 30.4 16.4 43 19 1.4 3.3 1014.2 0.0000 0.0000
16:47 30.2 16.6 44 340 1.4 4.4 1014.2 0.0000 0.0000
16:57 30.2 17 45 3 1.1 3.3 1014.2 0.0000 0.0000

DAY STATISTIC

2019-08-18
TEMPERATURE
AVERAGE
22.7
HIGH
30.9
15:41
LOW
17.8
03:49
PRESSURE
AVERAGE
1014.6
HIGH
1016.1
00:34
LOW
1012.8
13:24
DEWPOINT
AVERAGE
15.5
HIGH
17.4
11:53
LOW
14.1
03:49
HUMIDITY
AVERAGE
66
HIGH
80
03:39
LOW
40
15:32
WIND SPEED
AVERAGE
1.0
HIGH
2.2
15:32
WIND GUST
AVERAGE
2.2
HIGH
6.4
15:41
WIND DIRECTION
PREVAILING
S
39.6%
N
24.8
NE
1.0
E
3.0
SE
16.8
S
39.6
SW
5.9
W
4.0
NW
5.0
PRECIPITATION
RAIN HOUR
0.0
RAIN DAY
0.0
TEMPERATURE (°C)
LOW
17.8
HIGH
30.9
AVERAGE
22.7
PRESSURE (hpa)
LOW
1012.8
HIGH
1016.1
AVERAGE
1014.6
DEVICE